Location: Prairie State College
(41.5244°N, 87.6382°W)
Time: 12:18:52
(UTC-05:00)

Amateur Radio Satellites - All Passes

Search period start: 26 September 2016 11:48
Search period end: 27 September 2016 11:48
Location: Prairie State College, 41.5244°N, 87.6382°W

Satellite Date Start Highest point End Downlink Frequencies (MHz)
Time Altitude Azimuth
JAS-2 26 Sep 11:49:46 11:56:06 77° 73° (ENE) 12:03:20 435.910
AIST 2 26 Sep 11:53:03 11:55:46 16° 42° (NE) 11:58:29 435.215
QB50P2 26 Sep 11:53:44 11:57:52 57° 259° (W) 12:02:02 145.880/145.840
POLYITAN 1 26 Sep 11:55:59 12:00:07 56° 260° (W) 12:04:15 437.675
HUMSAT D 26 Sep 12:01:21 12:04:51 25° 291° (WNW) 12:08:22 437.325/437.525
DELFI C3 26 Sep 12:10:03 12:10:44 10° 298° (WNW) 12:11:25 145.870
ESTCUBE 1 26 Sep 12:11:49 12:16:20 63° 101° (ESE) 12:20:49 437.505/2401.250
DX 1 26 Sep 12:17:31 12:20:50 21° 94° (E) 12:24:08 434.975-435.025
VELOX 1 26 Sep 12:19:03 12:23:06 35° 98° (E) 12:27:07 145.980
YUBILEINY 26 Sep 12:19:25 12:22:04 11° 54° (NE) 12:24:43 435.215
CUBEBUG 1 26 Sep 12:27:47 12:32:05 59° 100° (E) 12:36:20 437.445
50 SAT 26 Sep 12:33:49 12:37:25 51° 100° (E) 12:40:58 437.505
DUCHIFAT 1 26 Sep 12:37:34 12:40:54 23° 265° (W) 12:44:14 145.980
QB50P1 26 Sep 12:37:59 12:41:06 20° 266° (W) 12:44:14 145.935-145.965
BUGSAT 1 26 Sep 12:46:29 12:50:25 42° 261° (W) 12:54:18 437.445
PCSat 26 Sep 12:50:49 12:54:57 21° 45° (NE) 12:59:04 145.827
POPSAT HIP 1 26 Sep 12:52:12 12:54:35 15° 268° (W) 12:56:59 437.405
Oscar 19 26 Sep 12:54:43 12:59:38 44° 70° (ENE) 13:04:34 437.125/150
AUBIESAT-1 26 Sep 12:58:45 13:01:52 38° 104° (ESE) 13:04:58 437.475
PHONESAT 2.4 26 Sep 13:05:39 13:08:35 61° 170° (S) 13:11:30 2401.200-2431.200
TISAT 1 26 Sep 13:09:37 13:11:39 13° 91° (E) 13:13:41 437.305
AISAT 26 Sep 13:11:26 13:15:45 57° 287° (WNW) 13:20:02 437.250
SPROUT 26 Sep 13:16:54 13:21:10 88° 96° (E) 13:25:26 437.525
UKube-1 26 Sep 13:27:30 13:31:50 84° 285° (WNW) 13:36:08 .
AIST 2 26 Sep 13:30:30 13:34:40 64° 240° (WSW) 13:38:48 435.215
M-CUBED/EXP-1 PRIME 26 Sep 13:34:36 13:37:47 47° 291° (WNW) 13:40:56 437.505
JAS-2 26 Sep 13:37:47 13:42:03 18° 274° (W) 13:46:39 435.910
Gurwin Techsat 1B 26 Sep 13:38:30 13:43:40 54° 71° (ENE) 13:48:51 435.225
ITAMSAT 1 26 Sep 13:45:45 13:49:17 19° 62° (ENE) 13:52:50 435.822/435.867
ESTCUBE 1 26 Sep 13:50:15 13:52:36 14° 298° (WNW) 13:54:56 437.505/2401.250
DX 1 26 Sep 13:53:10 13:57:06 34° 290° (WNW) 14:01:00 434.975-435.025
VELOX 1 26 Sep 13:55:59 13:59:21 22° 294° (WNW) 14:02:41 145.980
CUBEBUG 1 26 Sep 14:05:42 14:07:52 14° 297° (WNW) 14:10:00 437.445
Cosmos 2491 26 Sep 14:08:35 14:15:47 30° 82° (E) 14:23:00 435.465 / 435.565
50 SAT 26 Sep 14:09:19 14:10:28 11° 296° (WNW) 14:11:36 437.505
AO-7 26 Sep 14:11:56 14:18:59 32° 57° (ENE) 14:26:01 29.400- 29.500
YUBILEINY 26 Sep 14:12:24 14:21:01 60° 78° (ENE) 14:29:33 435.215
ITUPSAT 1 26 Sep 14:13:50 14:16:16 14° 91° (E) 14:18:43 437.325
Cosmos 2504 26 Sep 14:14:17 14:19:57 23° 68° (ENE) 14:25:49 435.465 / 435.565
SWISSCUBE 26 Sep 14:26:51 14:30:32 22° 94° (E) 14:34:12 437.505
PCSat 26 Sep 14:33:27 14:38:51 66° 244° (WSW) 14:44:11 145.827
AUBIESAT-1 26 Sep 14:34:44 14:36:01 12° 300° (WNW) 14:37:20 437.475
Oscar 19 26 Sep 14:35:05 14:39:07 23° 266° (W) 14:43:11 437.125/150
BEESAT 26 Sep 14:39:47 14:43:47 26° 95° (E) 14:47:47 436.000
PHONESAT 2.4 26 Sep 14:41:41 14:44:38 65° 188° (S) 14:47:35 2401.200-2431.200
TISAT 1 26 Sep 14:43:32 14:47:35 50° 287° (WNW) 14:51:36 437.305
Gurwin Techsat 1B 26 Sep 15:20:14 15:23:57 19° 268° (W) 15:27:39 435.225
ITAMSAT 1 26 Sep 15:23:14 15:28:17 57° 259° (W) 15:33:24 435.822/435.867
SO-50 26 Sep 15:35:06 15:39:47 52° 118° (ESE) 15:44:28 436.795
AIST 1 26 Sep 15:39:40 15:42:08 15° 70° (ENE) 15:44:36
HORYU 2 26 Sep 15:42:46 15:43:40 11° 60° (ENE) 15:44:33 437.375
ITUPSAT 1 26 Sep 15:49:45 15:54:31 64° 287° (WNW) 15:59:16 437.325
AO-7 26 Sep 16:03:02 16:11:15 62° 256° (WSW) 16:19:30 29.400- 29.500
Cosmos 2491 26 Sep 16:03:20 16:11:59 61° 282° (WNW) 16:20:44 435.465 / 435.565
SWISSCUBE 26 Sep 16:03:58 16:08:28 40° 290° (WNW) 16:12:56 437.505
Cosmos 2504 26 Sep 16:06:34 16:13:53 68° 266° (W) 16:21:43 435.465 / 435.565
YUBILEINY 26 Sep 16:10:06 16:17:11 29° 278° (W) 16:24:15 435.215
BEESAT 26 Sep 16:17:17 16:21:35 34° 292° (WNW) 16:25:52 436.000
PHONESAT 2.4 26 Sep 16:18:02 16:20:31 24° 203° (SSW) 16:22:59 2401.200-2431.200
MOZHAYETS 4 26 Sep 16:20:02 16:24:33 50° 99° (E) 16:29:04
BRITE-PL 26 Sep 16:42:39 16:47:32 30° 67° (ENE) 16:52:21 437.365/2234.400
GOMX 1 26 Sep 16:42:52 16:45:24 14° 61° (ENE) 16:47:52 467.674
KKS-1 26 Sep 16:56:51 17:01:17 77° 102° (ESE) 17:05:42 437.445
NOAA 15 26 Sep 17:01:16 17:05:17 22° 63° (ENE) 17:09:19 137.62
Cubesat XI-IV 26 Sep 17:11:50 17:15:50 22° 63° (ENE) 17:19:52 437.490
CUTE-I 26 Sep 17:12:26 17:16:30 23° 63° (ENE) 17:20:33 437.470
DOVE 4 26 Sep 17:14:03 17:14:49 10° 61° (ENE) 17:15:33 437.250
HORYU 2 26 Sep 17:15:08 17:19:32 82° 258° (WSW) 17:23:58 437.375
AIST 1 26 Sep 17:15:54 17:20:01 45° 267° (W) 17:24:05
SO-50 26 Sep 17:16:41 17:20:33 23° 316° (NW) 17:24:23 436.795
LilacSat-2 26 Sep 17:19:45 17:22:15 17° 67° (ENE) 17:24:45 437.200
O/OREOS (USA 219) 26 Sep 17:20:20 17:24:54 58° 65° (ENE) 17:29:24 437.305
STARS 26 Sep 17:34:48 17:39:12 86° 284° (WNW) 17:43:34 437.465
CUBESAT XI-V 26 Sep 17:35:37 17:40:04 41° 98° (E) 17:44:28 437.345
NOAA 18 26 Sep 17:39:38 17:44:29 34° 66° (ENE) 17:49:20 137.9125
MOZHAYETS 4 26 Sep 17:58:15 18:01:18 18° 296° (WNW) 18:04:23
Cosmos 2504 26 Sep 18:05:33 18:05:53 10° 284° (WNW) 18:06:13 435.465 / 435.565
Cosmos 2491 26 Sep 18:08:03 18:11:00 12° 306° (NW) 18:13:57 435.465 / 435.565
GOMX 1 26 Sep 18:17:22 18:22:49 86° 257° (WSW) 18:28:03 467.674
BRITE-PL 26 Sep 18:20:29 18:25:48 40° 263° (W) 18:31:06 437.365/2234.400
CUSAT 1 26 Sep 18:23:05 18:27:47 23° 81° (E) 18:33:11 437.405
CINEMA 3 26 Sep 18:34:46 18:37:32 16° 66° (ENE) 18:40:15 145.822/145.860
GONETS M04 26 Sep 18:35:17 18:41:47 22° 63° (ENE) 18:48:11
KKS-1 26 Sep 18:35:53 18:37:13 11° 300° (WNW) 18:38:33 437.445
NOAA 15 26 Sep 18:39:34 18:44:42 50° 260° (W) 18:49:53 137.62
HO-68 26 Sep 18:41:58 18:48:03 31° 61° (ENE) 18:54:09 435.675
DOVE 4 26 Sep 18:46:43 18:51:48 84° 76° (ENE) 18:56:38 437.250
Cubesat XI-IV 26 Sep 18:50:25 18:55:33 49° 260° (W) 19:00:43 437.490
CUTE-I 26 Sep 18:51:05 18:56:12 48° 261° (W) 19:01:21 437.470
LilacSat-2 26 Sep 18:52:54 18:56:17 32° 263° (W) 18:59:43 437.200
O/OREOS (USA 219) 26 Sep 19:01:23 19:03:46 14° 262° (W) 19:06:07 437.305
CUBESAT XI-V 26 Sep 19:13:38 19:17:10 21° 294° (WNW) 19:20:40 437.345
CUTE 1.7 + AOD 2 26 Sep 19:15:32 19:19:11 30° 70° (ENE) 19:22:55 437.475
CANX-2 26 Sep 19:16:17 19:20:07 35° 71° (ENE) 19:24:00 2200.000
SEEDS 26 Sep 19:20:04 19:23:25 23° 68° (ENE) 19:26:48 437.485
NOAA 18 26 Sep 19:20:12 19:25:05 33° 263° (W) 19:29:59 137.9125
Cosmos 2499 26 Sep 19:21:30 19:28:10 33° 72° (ENE) 19:35:13 435.465 / 435.565
DANDE 26 Sep 19:39:21 19:43:46 32° 86° (E) 19:49:23 436.750
STRAND 1 26 Sep 19:40:07 19:44:53 37° 98° (E) 19:49:37 437.568
RS-15 26 Sep 19:45:03 19:55:55 50° 110° (ESE) 20:07:19 29.354- 29.394
AAUSAT CUBESAT 2 26 Sep 19:46:48 19:50:11 25° 68° (ENE) 19:53:35 437.432
ISS 26 Sep 19:50:09 19:51:24 12° 129° (SE) 19:52:39 145.825
CUBEBUG 2 26 Sep 19:51:05 19:54:37 27° 69° (ENE) 19:58:07 437.445
GOMX 1 26 Sep 20:00:32 20:01:28 10° 272° (W) 20:02:23 467.674
CUSAT 1 26 Sep 20:02:53 20:08:54 64° 284° (WNW) 20:16:24 437.405
FUNcube-1 26 Sep 20:04:52 20:07:12 15° 65° (ENE) 20:09:32 145.935
CINEMA 3 26 Sep 20:09:58 20:14:21 48° 261° (W) 20:18:34 145.822/145.860
UWE-3 26 Sep 20:12:03 20:15:41 30° 70° (ENE) 20:19:18 435.000/436.395/437.385
HO-68 26 Sep 20:28:27 20:35:25 53° 259° (W) 20:42:26 435.675
COMPASS 1 26 Sep 20:28:43 20:32:53 86° 258° (WSW) 20:37:07 437.405
DOVE 4 26 Sep 20:28:53 20:29:57 11° 271° (W) 20:31:02 437.250
GONETS M04 26 Sep 20:30:51 20:39:42 82° 264° (W) 20:48:26
ZACube-1 26 Sep 20:44:15 20:48:09 42° 72° (ENE) 20:52:05 437.345
Oscar 11 26 Sep 20:44:44 20:48:48 43° 72° (ENE) 20:52:54 145.826/435.025
CUTE 1.7 + AOD 2 26 Sep 20:51:39 20:55:02 23° 266° (W) 20:58:27 437.475
CANX-2 26 Sep 20:52:58 20:56:04 20° 267° (W) 20:59:11 2200.000
SEEDS 26 Sep 20:55:18 20:58:58 29° 264° (W) 21:02:41 437.485
Cosmos 2499 26 Sep 21:14:16 21:21:25 49° 270° (W) 21:29:05 435.465 / 435.565
PRISM 26 Sep 21:14:19 21:18:00 30° 97° (E) 21:21:37 437.425
AO-85 26 Sep 21:15:32 21:20:35 50° 117° (ESE) 21:25:21 145.980
HUMSAT D 26 Sep 21:17:38 21:20:34 20° 67° (ENE) 21:23:33 437.325/437.525
DELFI C3 26 Sep 21:18:10 21:21:53 38° 72° (ENE) 21:25:38 145.870
STRAND 1 26 Sep 21:19:35 21:23:53 28° 294° (WNW) 21:28:11 437.568
DANDE 26 Sep 21:21:44 21:26:25 34° 292° (WNW) 21:32:26 436.750
AAUSAT CUBESAT 2 26 Sep 21:22:00 21:25:33 27° 265° (W) 21:29:09 437.432
ISS 26 Sep 21:24:12 21:27:26 78° 324° (NW) 21:30:43 145.825
CUBEBUG 2 26 Sep 21:27:44 21:31:12 25° 265° (W) 21:34:38 437.445
FUNcube-1 26 Sep 21:39:04 21:43:03 47° 261° (W) 21:47:03 145.935
UWE-3 26 Sep 21:48:55 21:52:10 22° 266° (W) 21:55:25 435.000/436.395/437.385
CUSAT 1 26 Sep 21:50:01 21:52:47 12° 307° (NW) 21:55:42 437.405
ANTELSAT 26 Sep 21:53:14 21:54:30 11° 90° (E) 21:55:47 437.575/2403.000
RS-15 26 Sep 21:56:55 22:08:19 55° 314° (NW) 22:20:21 29.354- 29.394
TIGRISAT 26 Sep 22:12:39 22:15:37 18° 93° (E) 22:18:38 435.000
ZACube-1 26 Sep 22:22:13 22:24:40 15° 268° (W) 22:27:07 437.345
Oscar 11 26 Sep 22:22:23 22:25:08 16° 268° (W) 22:27:54 145.826/435.025
GONETS M04 26 Sep 22:30:22 22:35:01 16° 285° (WNW) 22:39:40
AISAT 26 Sep 22:34:48 22:36:54 13° 62° (ENE) 22:39:00 437.250
M-CUBED/EXP-1 PRIME 26 Sep 22:47:31 22:50:14 17° 62° (ENE) 22:52:49 437.505
PRISM 26 Sep 22:49:55 22:53:08 22° 293° (WNW) 22:56:18 437.425
UNISAT 6 26 Sep 22:51:49 22:56:06 50° 100° (E) 23:00:28 437.425
HUMSAT D 26 Sep 22:52:16 22:55:58 33° 263° (W) 22:59:43 437.325/437.525
DELFI C3 26 Sep 22:54:23 22:56:52 16° 268° (W) 22:59:23 145.870
AO-85 26 Sep 22:57:01 23:01:15 26° 314° (NW) 23:05:17 145.980
JAS-2 26 Sep 23:01:45 23:05:13 13° 83° (E) 23:08:37 435.910
ISS 26 Sep 23:01:55 23:04:21 19° 344° (NNW) 23:06:48 145.825
50 SAT 26 Sep 23:10:59 23:13:52 23° 69° (ENE) 23:16:47 437.505
ESTCUBE 1 26 Sep 23:11:07 23:15:34 58° 73° (ENE) 23:20:02 437.505/2401.250
DX 1 26 Sep 23:13:22 23:16:34 20° 65° (ENE) 23:19:45 434.975-435.025
VELOX 1 26 Sep 23:16:20 23:20:19 33° 69° (ENE) 23:24:17 145.980
NANOSAT C BR1 26 Sep 23:18:38 23:19:45 11° 90° (E) 23:20:51 145.865
CUBEBUG 1 26 Sep 23:23:29 23:27:45 49° 73° (ENE) 23:32:01 437.445
ANTELSAT 26 Sep 23:27:15 23:31:37 68° 285° (WNW) 23:36:05 437.575/2403.000
QB50P2 26 Sep 23:38:58 23:42:16 22° 94° (E) 23:45:34 145.880/145.840
POLYITAN 1 26 Sep 23:41:11 23:44:30 22° 95° (E) 23:47:47 437.675
AUBIESAT-1 26 Sep 23:44:08 23:48:10 58° 69° (ENE) 23:51:56 437.475
TIGRISAT 26 Sep 23:48:20 23:52:29 42° 288° (WNW) 23:56:41 435.000
TISAT 1 27 Sep 00:02:35 00:03:51 11° 62° (ENE) 00:05:06 437.305
SO-50 27 Sep 00:06:31 00:10:58 47° 52° (NE) 00:15:17 436.795
AISAT 27 Sep 00:08:24 00:12:50 65° 258° (WSW) 00:17:16 437.250
SPROUT 27 Sep 00:10:08 00:14:22 67° 75° (ENE) 00:18:37 437.525
RS-15 27 Sep 00:15:01 00:24:32 26° 345° (NNW) 00:34:16 29.354- 29.394
Cosmos 2491 27 Sep 00:19:08 00:23:33 14° 57° (ENE) 00:27:57 435.465 / 435.565
DUCHIFAT 1 27 Sep 00:20:22 00:24:28 52° 100° (E) 00:28:33 145.980
M-CUBED/EXP-1 PRIME 27 Sep 00:20:31 00:24:31 41° 255° (WSW) 00:28:15 437.505
QB50P1 27 Sep 00:21:05 00:25:16 62° 101° (E) 00:29:26 145.935-145.965
UKube-1 27 Sep 00:21:42 00:26:01 82° 76° (ENE) 00:30:23 .
BEESAT 3 27 Sep 00:23:45 00:25:49 14° 110° (ESE) 00:27:54 437.485
BUGSAT 1 27 Sep 00:28:16 00:31:36 24° 96° (E) 00:34:54 437.445
UNISAT 6 27 Sep 00:29:44 00:32:27 16° 295° (WNW) 00:35:11 437.425
POPSAT HIP 1 27 Sep 00:34:28 00:38:41 87° 101° (E) 00:42:55 437.405
ISS 27 Sep 00:39:53 00:41:48 14° 5° (N) 00:43:42 145.825
JAS-2 27 Sep 00:43:33 00:51:28 73° 102° (ESE) 00:59:01 435.910
50 SAT 27 Sep 00:44:25 00:47:17 22° 265° (W) 00:50:12 437.505
DX 1 27 Sep 00:48:23 00:52:29 39° 262° (W) 00:56:35 434.975-435.025
ESTCUBE 1 27 Sep 00:50:26 00:52:43 14° 269° (W) 00:55:02 437.505/2401.250
NANOSAT C BR1 27 Sep 00:51:43 00:55:52 62° 286° (WNW) 01:00:01 145.865
VELOX 1 27 Sep 00:53:13 00:56:48 23° 265° (W) 01:00:23 145.980
CUBEBUG 1 27 Sep 01:01:42 01:04:18 15° 268° (W) 01:06:54 437.445
Oscar 19 27 Sep 01:07:29 01:10:24 15° 90° (E) 01:13:17 437.125/150
QB50P2 27 Sep 01:14:22 01:18:05 31° 291° (WNW) 01:21:49 145.880/145.840
BEESAT 2 27 Sep 01:15:26 01:18:43 26° 114° (ESE) 01:22:02 435.950
POLYITAN 1 27 Sep 01:16:35 01:20:19 31° 290° (WNW) 01:24:02 437.675
ITUPSAT 1 27 Sep 01:20:39 01:23:45 18° 63° (ENE) 01:26:54 437.325
AUBIESAT-1 27 Sep 01:21:34 01:22:49 11° 262° (W) 01:24:04 437.475
YUBILEINY 27 Sep 01:23:36 01:26:34 12° 73° (ENE) 01:29:31 435.215
SWISSCUBE 27 Sep 01:33:26 01:37:20 26° 66° (ENE) 01:41:16 437.505
TISAT 1 27 Sep 01:34:45 01:38:55 69° 258° (WSW) 01:43:06 437.305
BEESAT 27 Sep 01:46:15 01:50:24 31° 68° (ENE) 01:54:34 436.000
SO-50 27 Sep 01:47:50 01:51:03 19° 249° (WSW) 01:54:14 436.795
SPROUT 27 Sep 01:49:56 01:50:44 10° 271° (W) 01:51:32 437.525
Gurwin Techsat 1B 27 Sep 01:55:18 01:59:18 21° 93° (E) 02:03:15 435.225
DUCHIFAT 1 27 Sep 01:57:30 01:59:43 14° 296° (WNW) 02:01:56 145.980
QB50P1 27 Sep 01:58:47 02:00:31 12° 297° (WNW) 02:02:16 145.935-145.965
BEESAT 3 27 Sep 01:59:15 02:03:02 49° 306° (NW) 02:06:54 437.485
BUGSAT 1 27 Sep 02:03:35 02:06:54 25° 291° (WNW) 02:10:12 437.445
Cosmos 2491 27 Sep 02:13:22 02:22:14 70° 80° (E) 02:31:00 435.465 / 435.565
ISS 27 Sep 02:16:08 02:19:05 29° 24° (NNE) 02:22:01 145.825
JAS-2 27 Sep 02:29:30 02:35:42 27° 301° (WNW) 02:41:47 435.910
RS-15 27 Sep 02:32:34 02:42:42 28° 21° (NNE) 02:52:48 29.354- 29.394
Oscar 19 27 Sep 02:45:03 02:50:10 65° 287° (WNW) 02:55:14 437.125/150
BEESAT 2 27 Sep 02:52:57 02:56:26 29° 311° (NW) 02:59:57 435.950
Cosmos 2504 27 Sep 02:55:38 03:00:00 17° 80° (E) 03:04:16 435.465 / 435.565
ITUPSAT 1 27 Sep 02:56:31 03:01:10 53° 260° (W) 03:05:51 437.325
SWISSCUBE 27 Sep 03:10:40 03:14:58 34° 263° (W) 03:19:19 437.505
YUBILEINY 27 Sep 03:12:54 03:21:36 69° 93° (E) 03:30:17 435.215
MOZHAYETS 4 27 Sep 03:21:50 03:26:12 47° 72° (ENE) 03:30:37
BEESAT 27 Sep 03:24:05 03:28:09 28° 264° (W) 03:32:15 436.000
AIST 2 27 Sep 03:28:32 03:31:52 24° 113° (ESE) 03:35:13 435.215
Gurwin Techsat 1B 27 Sep 03:34:22 03:39:29 49° 289° (WNW) 03:44:35 435.225
PCSat 27 Sep 03:34:28 03:37:30 15° 104° (ESE) 03:40:33 145.827
ITAMSAT 1 27 Sep 03:35:45 03:40:50 50° 100° (E) 03:45:53 435.822/435.867
ISS 27 Sep 03:52:31 03:55:38 40° 221° (SW) 03:58:45 145.825
KKS-1 27 Sep 03:54:40 03:59:05 71° 75° (ENE) 04:03:32 437.445
AO-7 27 Sep 04:04:24 04:12:18 46° 100° (E) 04:20:09 29.400- 29.500
Cosmos 2491 27 Sep 04:11:29 04:18:12 25° 280° (W) 04:24:53 435.465 / 435.565
STARS 27 Sep 04:31:10 04:35:34 85° 73° (ENE) 04:39:57 437.465
CUBESAT XI-V 27 Sep 04:38:47 04:43:10 41° 71° (ENE) 04:47:35 437.345
Cosmos 2504 27 Sep 04:44:59 04:52:27 80° 279° (W) 04:59:40 435.465 / 435.565
RS-15 27 Sep 04:45:57 04:58:18 65° 51° (NE) 05:10:22 29.354- 29.394
CUSAT 1 27 Sep 04:56:21 05:01:59 21° 60° (ENE) 05:07:05 437.405
MOZHAYETS 4 27 Sep 05:00:40 05:03:37 17° 268° (W) 05:06:35
AIST 2 27 Sep 05:06:28 05:10:11 32° 310° (NW) 05:13:58 435.215
HORYU 2 27 Sep 05:06:44 05:09:50 18° 93° (E) 05:12:57 437.375
YUBILEINY 27 Sep 05:12:05 05:19:09 26° 294° (WNW) 05:26:14 435.215
PCSat 27 Sep 05:14:50 05:20:14 73° 301° (WNW) 05:25:41 145.827
ITAMSAT 1 27 Sep 05:16:02 05:19:56 22° 297° (WNW) 05:23:51 435.822/435.867
KKS-1 27 Sep 05:35:09 05:36:07 11° 270° (W) 05:37:05 437.445
AIST 1 27 Sep 05:44:36 05:49:00 81° 278° (W) 05:53:24
AO-85 27 Sep 05:47:39 05:51:36 38° 50° (NE) 05:55:17 145.980
AO-7 27 Sep 05:57:22 06:04:58 42° 299° (WNW) 06:12:35 29.400- 29.500
NOAA 18 27 Sep 06:03:02 06:05:26 13° 90° (E) 06:07:51 137.9125
DANDE 27 Sep 06:15:53 06:23:32 38° 69° (ENE) 06:30:50 436.750
CUBESAT XI-V 27 Sep 06:17:11 06:20:41 21° 267° (W) 06:24:14 437.345
GOMX 1 27 Sep 06:20:19 06:23:58 25° 94° (E) 06:27:28 467.674
BRITE-PL 27 Sep 06:25:37 06:30:31 74° 102° (ESE) 06:34:59 437.365/2234.400
LilacSat-2 27 Sep 06:25:58 06:29:08 24° 95° (E) 06:32:18 437.200
CUSAT 1 27 Sep 06:37:14 06:45:07 83° 263° (W) 06:51:41 437.405
HORYU 2 27 Sep 06:42:22 06:46:33 41° 289° (WNW) 06:50:45 437.375
Cosmos 2504 27 Sep 06:43:43 06:47:02 13° 299° (WNW) 06:50:20 435.465 / 435.565
DOVE 4 27 Sep 06:46:40 06:49:41 19° 93° (E) 06:52:40 437.250
NOAA 15 27 Sep 06:54:20 06:59:37 61° 102° (ESE) 07:04:50 137.62
STRAND 1 27 Sep 06:56:00 07:00:57 54° 71° (ENE) 07:05:55 437.568
RS-15 27 Sep 06:59:11 07:10:13 41° 253° (WSW) 07:21:01 29.354- 29.394
PCSat 27 Sep 07:01:45 07:04:36 14° 321° (NW) 07:07:28 145.827
Cubesat XI-IV 27 Sep 07:07:10 07:12:30 65° 102° (ESE) 07:17:49 437.490
CUTE-I 27 Sep 07:07:37 07:12:58 67° 102° (ESE) 07:18:17 437.470
AO-85 27 Sep 07:28:49 07:31:41 19° 249° (WSW) 07:34:26 145.980
O/OREOS (USA 219) 27 Sep 07:32:28 07:36:58 66° 110° (ESE) 07:41:31 437.305
GONETS M04 27 Sep 07:37:40 07:44:15 24° 80° (E) 07:50:51
NOAA 18 27 Sep 07:41:13 07:46:43 81° 286° (WNW) 07:52:11 137.9125
HO-68 27 Sep 07:56:12 08:02:21 30° 95° (E) 08:08:29 435.675
GOMX 1 27 Sep 07:58:16 08:02:03 28° 292° (WNW) 08:05:40 467.674
DANDE 27 Sep 07:58:30 08:06:33 53° 269° (W) 08:14:08 436.750
LilacSat-2 27 Sep 08:00:16 08:03:20 23° 291° (WNW) 08:06:25 437.200
Cosmos 2499 27 Sep 08:00:19 08:05:43 24° 83° (E) 08:11:03 435.465 / 435.565
PRISM 27 Sep 08:03:57 08:07:17 24° 67° (ENE) 08:10:38 437.425
CINEMA 3 27 Sep 08:04:14 08:08:04 35° 97° (E) 08:11:57 145.822/145.860
BRITE-PL 27 Sep 08:06:10 08:08:13 13° 301° (WNW) 08:10:14 437.365/2234.400
COMPASS 1 27 Sep 08:12:40 08:15:08 15° 91° (E) 08:17:35 437.405
CUSAT 1 27 Sep 08:21:41 08:25:39 15° 283° (WNW) 08:29:22 437.405
DOVE 4 27 Sep 08:23:44 08:27:31 33° 290° (WNW) 08:31:14 437.250
CUTE 1.7 + AOD 2 27 Sep 08:35:15 08:39:31 58° 100° (E) 08:43:44 437.475
NOAA 15 27 Sep 08:35:19 08:38:53 19° 299° (WNW) 08:42:25 137.62
CANX-2 27 Sep 08:36:18 08:40:37 70° 102° (ESE) 08:44:53 2200.000
STRAND 1 27 Sep 08:37:00 08:40:26 18° 268° (W) 08:43:54 437.568
SEEDS 27 Sep 08:38:21 08:42:27 43° 98° (E) 08:46:29 437.485
BEESAT 3 27 Sep 08:40:02 08:41:47 12° 40° (NE) 08:43:31 437.485
Cubesat XI-IV 27 Sep 08:48:34 08:52:02 18° 299° (WNW) 08:55:30 437.490
CUTE-I 27 Sep 08:49:02 08:52:26 17° 299° (WNW) 08:55:50 437.470
ANTELSAT 27 Sep 08:53:38 08:54:14 10° 61° (ENE) 08:54:50 437.575/2403.000
AAUSAT CUBESAT 2 27 Sep 09:03:21 09:07:23 43° 98° (E) 09:11:22 437.432
TIGRISAT 27 Sep 09:12:14 09:14:48 16° 64° (ENE) 09:17:22 435.000
O/OREOS (USA 219) 27 Sep 09:14:17 09:16:52 15° 308° (NW) 09:19:28 437.305
CUBEBUG 2 27 Sep 09:16:57 09:21:11 61° 101° (E) 09:25:32 437.445
NOAA 18 27 Sep 09:24:31 09:26:30 12° 304° (NW) 09:28:28 137.9125
FUNcube-1 27 Sep 09:26:35 09:30:24 30° 96° (E) 09:34:17 145.935
GONETS M04 27 Sep 09:31:20 09:40:09 73° 280° (W) 09:49:03
BEESAT 2 27 Sep 09:33:01 09:36:00 20° 45° (NE) 09:38:58 435.950
UWE-3 27 Sep 09:36:42 09:41:00 67° 101° (ESE) 09:45:23 435.000/436.395/437.385
PRISM 27 Sep 09:38:48 09:42:27 29° 263° (W) 09:46:07 437.425
CINEMA 3 27 Sep 09:42:00 09:45:00 19° 293° (WNW) 09:48:02 145.822/145.860
HO-68 27 Sep 09:43:26 09:50:19 52° 293° (WNW) 09:57:10 435.675
COMPASS 1 27 Sep 09:46:53 09:50:55 45° 287° (WNW) 09:54:56 437.405
UNISAT 6 27 Sep 09:50:52 09:54:54 43° 72° (ENE) 09:58:57 437.425
Cosmos 2499 27 Sep 09:51:13 09:58:15 58° 282° (WNW) 10:05:13 435.465 / 435.565
Oscar 11 27 Sep 10:07:23 10:11:46 89° 105° (ESE) 10:16:08 145.826/435.025
ZACube-1 27 Sep 10:07:49 10:12:10 87° 279° (W) 10:16:34 437.345
CUTE 1.7 + AOD 2 27 Sep 10:12:43 10:14:51 14° 297° (WNW) 10:16:58 437.475
CANX-2 27 Sep 10:14:23 10:15:52 12° 298° (WNW) 10:17:21 2200.000
SEEDS 27 Sep 10:15:00 10:17:48 17° 295° (WNW) 10:20:35 437.485
BEESAT 3 27 Sep 10:16:00 10:20:00 86° 237° (WSW) 10:23:58 437.485
PHONESAT 2.4 27 Sep 10:21:05 10:22:02 11° 149° (SSE) 10:23:00 2401.200-2431.200
ANTELSAT 27 Sep 10:26:03 10:30:19 77° 256° (WSW) 10:34:35 437.575/2403.000
DELFI C3 27 Sep 10:29:49 10:33:50 63° 100° (E) 10:37:48 145.870
QB50P2 27 Sep 10:32:15 10:35:04 18° 66° (ENE) 10:37:55 145.880/145.840
POLYITAN 1 27 Sep 10:34:29 10:37:18 18° 65° (ENE) 10:40:07 437.675
HUMSAT D 27 Sep 10:34:57 10:38:52 35° 97° (E) 10:42:48 437.325/437.525
AAUSAT CUBESAT 2 27 Sep 10:39:50 10:42:30 17° 295° (WNW) 10:45:10 437.432
TIGRISAT 27 Sep 10:47:01 10:51:07 46° 261° (W) 10:55:14 435.000
CUBEBUG 2 27 Sep 10:55:26 10:57:20 13° 296° (WNW) 10:59:16 437.445
JAS-2 27 Sep 10:55:51 11:01:34 33° 62° (ENE) 11:07:54 435.910
FUNcube-1 27 Sep 11:03:01 11:06:31 25° 292° (WNW) 11:10:04 145.935
ESTCUBE 1 27 Sep 11:05:33 11:07:18 12° 90° (E) 11:09:02 437.505/2401.250
BEESAT 2 27 Sep 11:10:11 11:14:02 44° 243° (WSW) 11:17:51 435.950
DUCHIFAT 1 27 Sep 11:12:13 11:16:06 38° 71° (ENE) 11:19:59 145.980
QB50P1 27 Sep 11:13:25 11:17:27 45° 72° (ENE) 11:21:28 145.935-145.965
UWE-3 27 Sep 11:15:17 11:16:55 12° 297° (WNW) 11:18:36 435.000/436.395/437.385
BUGSAT 1 27 Sep 11:18:34 11:21:27 19° 66° (ENE) 11:24:20 437.445
POPSAT HIP 1 27 Sep 11:26:43 11:30:53 64° 74° (ENE) 11:35:03 437.405
UNISAT 6 27 Sep 11:29:11 11:31:50 16° 268° (W) 11:34:29 437.425
GONETS M04 27 Sep 11:34:06 11:38:45 15° 302° (WNW) 11:43:26
HO-68 27 Sep 11:35:48 11:36:25 10° 313° (NW) 11:37:02 435.675
